Location: Paddlesworth
(51.1000°N, 1.1333°E)
Time: 20:35:46
(UTC+00:00)

Cosmos 1937 Rocket - Pass Details

Date: 11 May 2021
Orbit: 745 x 781 km, 74.0° (Epoch: 21 June)

Event Time Altitude Azimuth Distance (km) Brightness Sun altitude
Exits shadow 22:09:36 30° 143° (SE) 1,322 4.2 -17.2°
Maximum altitude 22:11:14 38° 104° (ESE) 1,135 4.1 -17.3°
Drops below altitude 10° 22:15:59 10° 37° (NE) 2,288 6.3 -17.7°
Sets 22:18:30 0° 30° (NNE) 3,223 7.3 -17.8°
